Morgantown, WV

8:38 PM EST on January 20, 2017 (GMT -0500)
Morgantown Municipal-Hart

Weather History for KMGW - December, 2000

Change the Weather History Date:

Monday, December 11, 2000

  Actual Average Record
Temperature  
Mean Temperature 47 °F 36 °F  
Max Temperature 57 °F 43 °F 68 °F (1979)
Min Temperature 37 °F 28 °F 1 °F (1958)
Degree Days  
Heating Degree Days 18 29  
Month to date heating degree days 304  
Since 1 July heating degree days 1352  
Cooling Degree Days 0 0  
Month to date cooling degree days 0  
Year to date cooling degree days 814  
Moisture  
Dew Point 39 °F    
Average Humidity 80    
Maximum Humidity 100    
Minimum Humidity 49    
Precipitation  
Precipitation 0.00 in 0.10 in 1.15 in (1997)
Month to date precipitation 1.12  
Year to date precipitation 40.04  
Sea Level Pressure  
Sea Level Pressure 29.95 in    
Wind  
Wind Speed 4 mph (SSE)    
Max Wind Speed 16 mph    
Max Gust Speed 23 mph    
Visibility 8 miles    
Events Rain    
T = Trace of Precipitation, MM = Missing Value Source: NWS Daily Summary

Daily Weather History Graph

Daily Weather History Graph

Search for Another Location

Airport or City:

Trip Planner

Search our weather history database for the weather conditions in past years. The results will help you decide how hot, cold, wet, or windy it might be!

Date:

Astronomy

Dec. 11, 2000 Rise Set
Actual Time 7:30 AM EST 4:55 PM EST
Civil Twilight 7:00 AM EST 5:25 PM EST
Nautical Twilight 6:26 AM EST 5:59 PM EST
Astronomical Twilight 5:53 AM EST 6:32 PM EST
Moon 5:30 PM EST (12/11) 7:35 AM EST (12/11)
Length of Visible Light 10h 25m
Length of Day
9h 24m
Full, 100% of the Moon is Illuminated
Dec 11
Full
Dec 17
Last Quarter
Dec 25
New
Jan 2
First Quarter
Jan 9
Full

Hourly Weather History & Observations

Time (EST) Temp. Windchill Dew Point Humidity Pressure Visibility Wind Dir Wind Speed Gust Speed Precip Events Conditions
12:53 AM 39.9 °F - 39.0 °F 97% 30.18 in 7.0 mi Calm Calm - N/A   Overcast
1:53 AM 39.9 °F - 39.0 °F 97% 30.18 in 7.0 mi Calm Calm - N/A   Overcast
2:53 AM 37.9 °F - 37.9 °F 100% 30.17 in 7.0 mi Calm Calm - N/A   Overcast
3:53 AM 37.0 °F 34.5 °F 37.0 °F 100% 30.16 in 8.0 mi North 3.5 mph - N/A   Overcast
4:53 AM 37.0 °F - 37.0 °F 100% 30.16 in 7.0 mi Calm Calm - N/A   Overcast
5:53 AM 37.0 °F 34.5 °F 37.0 °F 100% 30.15 in 8.0 mi ENE 3.5 mph - N/A   Overcast
6:07 AM 37.4 °F 33.8 °F 37.4 °F 100% 30.12 in 7.0 mi East 4.6 mph - N/A   Overcast
7:53 AM 37.9 °F 35.5 °F 37.9 °F 100% 30.12 in 4.0 mi East 3.5 mph - N/A   Overcast
8:53 AM 39.9 °F 37.8 °F 39.0 °F 97% 30.12 in 4.0 mi Variable 3.5 mph - N/A   Overcast
9:53 AM 43.0 °F 41.3 °F 41.0 °F 93% 30.10 in 8.0 mi SE 3.5 mph - N/A   Overcast
10:53 AM 45.0 °F - 39.9 °F 82% 30.06 in 10.0 mi Calm Calm - N/A   Overcast
11:53 AM 46.9 °F - 39.0 °F 74% 29.99 in 10.0 mi SSE 12.7 mph - N/A   Overcast
12:53 PM 50.0 °F - 39.0 °F 66% 29.95 in 10.0 mi South 11.5 mph - N/A   Overcast
1:53 PM 51.1 °F - 37.9 °F 61% 29.91 in 10.0 mi SSE 9.2 mph - N/A   Overcast
2:53 PM 51.1 °F - 37.0 °F 59% 29.88 in 10.0 mi South 8.1 mph - N/A   Scattered Clouds
3:53 PM 51.1 °F - 37.0 °F 59% 29.85 in 10.0 mi South 10.4 mph - N/A   Overcast
4:53 PM 51.1 °F - 39.0 °F 63% 29.79 in 10.0 mi South 16.1 mph 19.6 mph 0.00 in Rain Light Rain
5:53 PM 50.0 °F - 39.9 °F 68% 29.75 in 10.0 mi South 8.1 mph 17.3 mph 0.00 in   Overcast
7:53 PM 50.0 °F - 39.0 °F 66% 29.67 in 10.0 mi South 9.2 mph - N/A   Clear
8:53 PM 52.0 °F - 37.9 °F 59% 29.61 in 10.0 mi Variable 6.9 mph - N/A   Partly Cloudy
10:53 PM 57.0 °F - 37.9 °F 49% 29.51 in 10.0 mi SSW 12.7 mph 23.0 mph N/A   Overcast
11:53 PM 55.9 °F - 46.0 °F 69% 29.48 in 10.0 mi SSW 11.5 mph 18.4 mph 0.00 in Rain Light Rain